#timestamp,LO_Frequency,Hit,StdDev 
1561298415.1,286047006.8,N
1561298435.8,286047005.6,N
1561298455.7,286047002.2,N
1561298475.5,286047000.1,N
1561298495.4,286047002.1,N
1561298515.2,286047000.7,N
1561298535.0,286047004.1,N
1561298535.9,286047004.1,N
1561298555.8,286046998.2,N
1561298575.6,286046998.7,N
1561298595.5,286047002.6,N
1561298615.3,286047002.2,N
1561298635.1,286047000.1,N
1561298655.9,286046998.4,N
1561298675.7,286047000.5,N
1561298695.5,286047001.0,N
1561298715.4,286047004.3,N
1561298735.2,286047004.9,N
1561298755.1,286047007.6,N
1561298756.0,286047007.6,N
1561298775.8,286047007.6,N
1561298795.6,286047008.9,N
1561298815.5,286047007.8,N
1561298835.3,286047007.7,N
1561298855.2,286047006.7,N
1561298875.9,286047003.8,N
1561298895.7,286047004.3,N
1561298915.6,286047005.6,N
1561298935.4,286047008.9,N
1561298955.2,286047015.1,Y
1561298975.1,286047014.0,P
1561298976.0,286047014.0,N
1561298995.8,286047012.6,N
1561299015.7,286047020.4,Y
1561299035.5,286047005.8,P
1561299055.3,286047005.9,N
1561299075.2,286047003.0,N
1561299095.0,286047003.5,N
1561299095.9,286047003.5,N
1561299115.8,286047004.7,N
1561299135.6,286047001.5,N
1561299155.4,286046998.4,N
1561299175.3,286047002.1,N
1561299195.1,286047000.8,N
1561299215.9,286046999.5,N
1561299235.7,286046997.5,N
1561299255.5,286046995.7,N
1561299275.4,286046999.7,N
1561299295.2,286047006.4,N
1561299315.0,286047005.0,N
1561299315.9,286047005.0,N
1561299335.8,286047001.4,N
1561299355.6,286047000.6,N
1561299375.5,286046997.7,N
1561299395.3,286046991.8,N
1561299415.1,286046990.2,N
1561299435.9,286046991.1,N
1561299455.7,286046988.8,N
1561299475.5,286046987.0,N
1561299495.4,286046987.4,N
1561299515.2,286046988.2,N
1561299535.1,286046987.8,N
1561299536.0,286046987.8,N
1561299555.8,286046990.9,N
1561299575.6,286046990.8,N
1561299595.5,286046987.2,N
1561299615.3,286046988.1,N
1561299635.2,286046987.1,N
1561299655.9,286046989.7,N
1561299675.7,286046987.3,N
1561299695.6,286046987.4,N
1561299715.4,286046985.3,N
1561299735.2,286046986.9,N
1561299755.1,286046983.8,N
1561299756.0,286046983.8,N
1561299775.8,286046985.0,N
1561299795.7,286046984.3,N
1561299815.5,286046983.9,N
1561299835.3,286046988.1,N
1561299855.2,286046989.0,N
1561299875.0,286046991.7,N
1561299875.9,286046991.7,N
1561299895.7,286046997.5,N
1561299915.6,286047000.2,N
1561299935.4,286047005.7,N
1561299955.3,286047004.2,N
1561299975.1,286047003.4,N
1561299976.0,286047003.4,N
1561299995.8,286047002.3,N
1561300015.7,286047003.0,N
1561300035.5,286047005.8,N
1561300055.4,286047005.4,N
1561300075.2,286047002.5,N
1561300095.0,286046998.9,N
1561300095.9,286046998.9,N
1561300115.8,286046995.9,N
1561300135.6,286046988.8,N
1561300155.4,286046989.0,N
1561300175.3,286046989.0,N
1561300195.1,286046989.7,N
1561300215.9,286046987.9,N
1561300235.7,286046990.8,N
1561300255.5,286046991.2,N
1561300275.4,286046985.8,N
1561300295.2,286046989.5,N
1561300315.0,286046989.5,N
1561300315.9,286046989.5,N
1561300335.8,286046989.2,N
1561300355.6,286046993.1,N
1561300375.5,286046993.1,N
1561300395.3,286046990.4,N
1561300415.1,286046991.9,N
1561300435.9,286046993.5,N
1561300455.7,286046997.5,N
1561300475.6,286047001.2,N
1561300495.4,286046998.2,N
1561300515.2,286046997.1,N
1561300535.1,286046999.5,N
1561300536.0,286046999.5,N
1561300555.8,286046999.3,N
1561300575.6,286047000.0,N
1561300595.5,286047001.8,N
1561300615.3,286047000.3,N
1561300635.2,286047004.5,N
1561300655.0,286047010.2,N
1561300655.9,286047010.2,N
1561300675.8,286047015.4,N
1561300695.6,286047014.4,N
1561300715.4,286047017.2,N
1561300735.3,286047012.7,N
1561300755.1,286047012.6,N
1561300775.9,286047013.1,N
1561300795.7,286047014.7,N
1561300815.5,286047016.9,N
1561300835.4,286047017.6,N
1561300855.2,286047016.5,N
1561300875.0,286047022.7,N
1561300875.9,286047022.7,N
1561300895.8,286047025.4,N
1561300915.6,286047018.0,N
1561300935.5,286047014.7,N
1561300955.3,286047016.6,N
1561300975.1,286047011.0,N
1561300995.9,286047011.6,N
1561301015.7,286047011.3,N
1561301035.5,286047013.8,N
1561301055.4,286047014.6,N
1561301075.2,286047015.2,N
1561301095.1,286047015.6,N
1561301096.0,286047015.6,N
1561301115.8,286047016.5,N
1561301135.7,286047014.4,N
1561301155.5,286047018.0,Y
1561301175.3,286047000.2,P
1561301195.2,286047002.6,N
1561301215.1,286047006.4,N
1561301216.0,286047006.4,N
1561301235.8,286047005.5,N
1561301255.6,286047003.2,N
1561301275.5,286047002.4,N
1561301295.3,286047004.4,N
1561301315.2,286047005.2,N
1561301335.9,286047003.3,N
1561301355.7,286047001.3,N
1561301375.6,286047003.4,N
1561301395.4,286047001.5,N
1561301415.3,286047010.2,Y
1561301435.1,286047006.6,P
1561301436.0,286047006.6,P
1561301455.8,286047009.4,P
1561301475.7,286047009.6,Y
1561301495.5,286047007.1,P
1561301515.3,286047010.8,P
1561301535.2,286047012.2,P
1561301555.0,286047007.4,Y
1561301555.9,286047007.4,P
1561301575.8,286046993.3,P
1561301595.6,286046994.0,N
1561301615.4,286046993.5,N
1561301635.3,286046992.4,N
1561301655.1,286046993.5,N
1561301675.9,286046990.5,N
1561301695.7,286046988.9,N
1561301715.5,286046989.8,N
1561301735.4,286046985.3,N
1561301755.2,286046988.2,N
1561301775.0,286046991.4,N
1561301775.9,286046991.4,N
1561301795.8,286046990.7,N
1561301845.7,286046983.4,E
1561301855.6,286046987.1,N
1561301875.4,286046996.6,P
1561301895.2,286047000.9,N
1561301915.1,286047001.1,N
1561301916.0,286047001.1,N
1561301935.8,286047000.1,N
1561301955.7,286047000.9,N
1561301975.5,286047002.1,N
1561301995.3,286047002.1,N
